{"data":{"norad_id":67721,"epoch":"2026-05-25T02:42:47.541600Z","epoch_age_seconds":71888,"freshness":"FRESH","line1":"1 67721U 26026A   26145.11305025  .00021206  00000+0  65718-3 0  9994","line2":"2 67721  97.2859 198.5710 0001080  85.6996 274.4370 15.33453372 15838","mean_motion":15.33453372,"eccentricity":0.000108,"inclination_deg":97.2859,"raan_deg":198.571,"arg_perigee_deg":85.6996,"mean_anomaly_deg":274.437,"bstar":0.00065718,"rev_number":1583,"period_min":93.905691969094,"perigee_km":464.779150641,"apogee_km":466.25738017833,"semimajor_km":6843.6552654097,"source":"CELESTRAK","updated_at":"2026-05-25T13:38:21.684749Z"}}